Location: Cz?stochówka
(50.8142°N, 19.0915°E)
Time: 19:42:26
(UTC+00:00)

Cosmos 1703 Rocket - Pass Details

Date: 13 January 2026
Orbit: 599 x 626 km, 82.5° (Epoch: 13 February)

Event Time Altitude Azimuth Distance (km) Brightness Sun altitude
Rises 05:55:53 0° 350° (N) 2,860 6.6 -7.0°
Reaches altitude 10° 05:58:06 10° 352° (N) 1,952 5.8 -6.7°
Maximum altitude 06:02:25 79° 79° (E) 619 3.7 -6.1°
Drops below altitude 10° 06:06:43 10° 167° (SSE) 1,941 6.8 -5.5°
Sets 06:08:56 0° 168° (SSE) 2,843 7.6 -5.2°
